Scottsbluff, NE

3:20 PM MST on December 07, 2019 (GMT -0700)
Heilig

Weather History for KBFF - June, 2019

Change the Weather History Date:

Thursday, June 13, 2019

  Actual Average Record
Temperature  
Mean Temperature 70 °F -  
Max Temperature 87 °F 79 °F 101 °F (1956)
Min Temperature 54 °F 52 °F 31 °F (1947)
Cooling Degree Days 6    
Growing Degree Days 20 (Base 50)    
Moisture  
Dew Point 56 °F    
Average Humidity 68    
Maximum Humidity 97    
Minimum Humidity 44    
Precipitation  
Precipitation 0.08 in - - ()
Sea Level Pressure  
Sea Level Pressure 29.84 in    
Wind  
Wind Speed 10 mph (SE)    
Max Wind Speed 36 mph    
Max Gust Speed 46 mph    
Visibility 10 miles    
Events Rain , Thunderstorm    
Averages and records for this station are not official NWS values.
T = Trace of Precipitation, MM = Missing Value Source: NWS Daily Summary

Daily Weather History Graph

Daily Weather History Graph

Search for Another Location

Airport or City:

Astronomy

Jun. 13, 2019 Rise Set
Actual Time 5:18 AM MDT 8:30 PM MDT
Civil Twilight 4:44 AM MDT 9:04 PM MDT
Nautical Twilight 4:00 AM MDT 9:48 PM MDT
Astronomical Twilight 3:07 AM MDT 10:41 PM MDT
Moon 4:44 PM MDT (6/13) 3:09 AM MDT (6/13)
Length of Visible Light 16h 20m
Length of Day
15h 11m
Waxing Gibbous, 86% of the Moon is Illuminated
Jun 13
Waxing Gibbous
Jun 17
Full
Jun 25
Last Quarter
Jul 2
New
Jul 9
First Quarter

Hourly Weather History & Observations

Time (MDT) Temp. Heat Index Dew Point Humidity Pressure Visibility Wind Dir Wind Speed Gust Speed Precip Events Conditions
12:53 AM 53.1 °F - 44.1 °F 71% 30.01 in 10.0 mi ESE 8.1 mph - N/A   Clear
1:53 AM 52.0 °F - 44.1 °F 74% 30.00 in 10.0 mi ESE 6.9 mph - N/A   Clear
2:53 AM 50.0 °F - 43.0 °F 77% 29.99 in 10.0 mi East 8.1 mph - N/A   Clear
3:53 AM 50.0 °F - 43.0 °F 77% 29.96 in 10.0 mi East 10.4 mph - N/A   Clear
4:53 AM 51.1 °F - 43.0 °F 74% 29.94 in 10.0 mi East 8.1 mph - N/A   Clear
5:53 AM 54.0 °F - 43.0 °F 66% 29.92 in 10.0 mi East 9.2 mph - N/A   Scattered Clouds
6:53 AM 59.0 °F - 46.9 °F 64% 29.91 in 10.0 mi SE 5.8 mph - N/A   Clear
7:53 AM 64.9 °F - 50.0 °F 58% 29.88 in 10.0 mi SSE 8.1 mph - N/A   Partly Cloudy
8:53 AM 69.1 °F - 52.0 °F 54% 29.87 in 10.0 mi South 6.9 mph - N/A   Clear
9:53 AM 72.0 °F - 55.0 °F 55% 29.86 in 10.0 mi SE 3.5 mph - N/A   Clear
10:53 AM 78.1 °F - 59.0 °F 52% 29.83 in 10.0 mi Variable 3.5 mph - N/A   Clear
11:53 AM 81.0 °F 82.2 °F 63.0 °F 54% 29.80 in 10.0 mi Variable 6.9 mph - N/A   Clear
12:53 PM 84.0 °F 86.3 °F 66.0 °F 55% 29.76 in 10.0 mi Variable 6.9 mph - N/A   Clear
1:53 PM 84.9 °F 88.8 °F 69.1 °F 59% 29.74 in 10.0 mi SW 11.5 mph 17.3 mph N/A   Clear
2:53 PM 86.0 °F 89.4 °F 68.0 °F 55% 29.73 in 10.0 mi Variable 4.6 mph 16.1 mph N/A   Clear
3:44 PM 82.9 °F 84.6 °F 64.9 °F 54% 29.83 in 10.0 mi SSW 17.3 mph - N/A   Scattered Clouds
3:53 PM 82.9 °F 84.6 °F 64.9 °F 54% 29.71 in 10.0 mi SW 15.0 mph - N/A   Partly Cloudy
5:02 PM 81.0 °F 81.7 °F 61.0 °F 50% 29.79 in 10.0 mi SSW 16.1 mph - N/A Thunderstorm Mostly Cloudy
5:20 PM 78.1 °F - 60.1 °F 54% 29.82 in 9.0 mi SW 12.7 mph 28.8 mph 0.00 in Rain , Thunderstorm Light Thunderstorms and Rain
5:48 PM 69.8 °F - 55.4 °F 60% 29.87 in 9.0 mi NNW 31.1 mph 46.0 mph 0.01 in Rain , Thunderstorm Light Rain
5:49 PM 68.0 °F - 55.9 °F 65% 29.78 in 8.0 mi NW 35.7 mph 46.0 mph 0.01 in Rain , Thunderstorm Light Rain
5:55 PM 64.9 °F - 57.0 °F 75% 29.90 in 8.0 mi NNW 26.5 mph 46.0 mph 0.00 in Rain , Thunderstorm Light Thunderstorms and Rain
6:02 PM 64.0 °F - 57.0 °F 78% 29.88 in 10.0 mi North 23.0 mph 38.0 mph 0.00 in Rain , Thunderstorm Light Thunderstorms and Rain
6:15 PM 64.9 °F - 55.0 °F 70% 29.86 in 10.0 mi North 17.3 mph 40.3 mph 0.00 in   Scattered Clouds
6:53 PM 66.0 °F - 55.9 °F 70% 29.76 in 10.0 mi NE 12.7 mph - 0.00 in   Clear
7:53 PM 64.9 °F - 57.0 °F 75% 29.76 in 10.0 mi SE 8.1 mph - N/A   Mostly Cloudy
8:53 PM 63.0 °F - 60.1 °F 90% 29.81 in 5.0 mi SSW 10.4 mph - 0.02 in Rain Light Rain
9:27 PM 62.1 °F - 59.0 °F 90% 29.89 in 10.0 mi Calm Calm - 0.07 in Thunderstorm Partly Cloudy
9:42 PM 62.1 °F - 59.0 °F 90% 29.89 in 10.0 mi South 4.6 mph - 0.07 in   Clear
9:53 PM 61.0 °F - 59.0 °F 93% 29.75 in 10.0 mi ESE 3.5 mph - 0.07 in   Clear
10:53 PM 57.9 °F - 57.0 °F 97% 29.74 in 10.0 mi Calm Calm - N/A   Clear
11:53 PM 57.0 °F - 55.9 °F 96% 29.74 in 10.0 mi East 4.6 mph - N/A   Clear